Tracking 18980 objects as of 17-Feb-2018
HD Live streaming from Space Station
objects crossing your sky now

SL-8 DEB

Track SL-8 DEB now!
10-day predictions


NORAD ID: 21250
Int'l Code: 1991-009BH
Perigee: 1,492.1 km
Apogee: 1,719.4 km
Inclination: 74.1 °
Period: 118.2 minutes
Semi major axis: 7976 km
RCS: 0.1024 m2 (medium)
Launch date: February 12, 1991
Source: Commonwealth of Independent States (former USSR) (CIS)
Launch site: PLESETSK MISSILE AND SPACE COMPLEX (PKMTR)

Note: This is SATELLITE DEBRIS
aabbcc
Your satellite tracking list
Your tracking list is empty




NASA's NSSDC Master Catalog

Two Line Element Set (TLE):
1 21250U 91009BH  18047.57195858 -.00000050 +00000-0 -33372-3 0  9995
2 21250 074.0595 102.7549 0142476 316.7394 160.1603 12.18615005198663
Source of the keplerian elements: AFSPC